TimePDT,TemperatureF,Dew PointF,Humidity,Sea Level PressureIn,VisibilityMPH,Wind Direction,Wind SpeedMPH,Gust SpeedMPH,PrecipitationIn,Events,Conditions,WindDirDegrees,DateUTC
12:56 AM,52.9,52.9,100,29.99,0.2,Calm,Calm,-,N/A,Fog,Fog,0,2013-08-04 07:56:00
1:10 AM,53.6,53.6,100,29.99,0.2,NNW,4.6,-,N/A,Fog,Fog,340,2013-08-04 08:10:00
1:41 AM,53.6,53.6,100,29.99,0.2,NNW,3.5,-,N/A,Fog,Fog,340,2013-08-04 08:41:00
1:56 AM,52.9,52.9,100,29.99,0.2,Calm,Calm,-,N/A,Fog,Fog,0,2013-08-04 08:56:00
2:08 AM,53.6,53.6,100,29.99,0.2,NNW,3.5,-,N/A,Fog,Fog,340,2013-08-04 09:08:00
2:56 AM,52.0,52.0,100,29.99,0.2,NW,4.6,-,N/A,Fog,Fog,310,2013-08-04 09:56:00
3:56 AM,52.0,52.0,100,29.99,0.2,Calm,Calm,-,N/A,Fog,Fog,0,2013-08-04 10:56:00
4:56 AM,52.0,52.0,100,29.98,0.2,Calm,Calm,-,N/A,Fog,Fog,0,2013-08-04 11:56:00
5:08 AM,51.8,51.8,100,29.97,0.2,Calm,Calm,-,N/A,Fog,Fog,0,2013-08-04 12:08:00
5:56 AM,52.0,52.0,100,29.99,0.2,NNW,3.5,-,N/A,Fog,Fog,340,2013-08-04 12:56:00
6:45 AM,51.8,51.8,100,29.98,0.2,NNW,3.5,-,N/A,Fog,Fog,330,2013-08-04 13:45:00
6:56 AM,50.9,50.9,100,29.99,0.2,NNW,3.5,-,N/A,Fog,Fog,340,2013-08-04 13:56:00
7:56 AM,52.0,52.0,100,29.99,0.2,NNW,3.5,-,N/A,Fog,Fog,330,2013-08-04 14:56:00
8:56 AM,52.0,52.0,100,30.00,0.2,Calm,Calm,-,N/A,Fog,Fog,0,2013-08-04 15:56:00
9:06 AM,51.8,51.8,100,29.99,0.2,Variable,3.5,-,N/A,Fog,Fog,0,2013-08-04 16:06:00
9:17 AM,53.6,53.6,100,29.99,0.2,NW,3.5,-,N/A,Fog,Fog,310,2013-08-04 16:17:00
9:56 AM,52.9,52.9,100,29.99,0.2,WNW,5.8,-,N/A,Fog,Fog,290,2013-08-04 16:56:00
10:38 AM,53.6,53.6,100,29.98,0.2,West,4.6,-,N/A,Fog,Fog,280,2013-08-04 17:38:00
10:56 AM,52.9,52.9,100,29.99,0.5,WNW,5.8,-,N/A,Fog,Fog,290,2013-08-04 17:56:00
11:22 AM,53.6,53.6,100,29.99,1.0,WNW,4.6,-,N/A,,Overcast,300,2013-08-04 18:22:00
11:30 AM,53.6,53.6,100,29.99,0.8,WNW,4.6,-,N/A,,Overcast,300,2013-08-04 18:30:00
11:38 AM,53.6,53.6,100,29.99,1.2,NW,3.5,-,N/A,,Overcast,310,2013-08-04 18:38:00
11:47 AM,53.6,53.6,100,29.99,2.0,West,4.6,-,N/A,,Overcast,260,2013-08-04 18:47:00
11:56 AM,54.9,54.0,97,29.99,2.5,West,4.6,-,N/A,,Overcast,270,2013-08-04 18:56:00
12:04 PM,55.4,53.6,94,29.98,4.0,Variable,4.6,-,N/A,,Overcast,0,2013-08-04 19:04:00
12:56 PM,57.9,54.0,87,29.99,10.0,West,4.6,-,N/A,,Mostly Cloudy,270,2013-08-04 19:56:00
1:20 PM,57.2,53.6,88,29.98,10.0,SSW,4.6,-,N/A,,Scattered Clouds,210,2013-08-04 20:20:00
1:56 PM,59.9,54.0,81,29.99,10.0,West,5.8,-,N/A,,Clear,260,2013-08-04 20:56:00
2:20 PM,57.2,53.6,88,29.99,10.0,SW,5.8,-,N/A,,Partly Cloudy,230,2013-08-04 21:20:00
2:37 PM,57.2,53.6,88,29.99,10.0,Variable,4.6,-,N/A,,Mostly Cloudy,0,2013-08-04 21:37:00
2:56 PM,57.9,52.9,83,29.99,10.0,Variable,4.6,-,N/A,,Overcast,0,2013-08-04 21:56:00
3:31 PM,55.4,53.6,94,29.98,9.0,Variable,5.8,-,N/A,,Overcast,0,2013-08-04 22:31:00
3:56 PM,56.8,52.9,87,29.98,10.0,Variable,5.8,-,N/A,,Overcast,0,2013-08-04 22:56:00
4:23 PM,55.4,53.6,94,29.97,8.0,SSW,5.8,-,N/A,,Overcast,200,2013-08-04 23:23:00
4:45 PM,55.4,53.6,94,29.97,2.5,Variable,3.5,-,N/A,,Overcast,0,2013-08-04 23:45:00
4:56 PM,56.8,52.9,87,29.98,9.0,Variable,3.5,-,N/A,,Overcast,0,2013-08-04 23:56:00
5:56 PM,57.9,54.0,87,29.97,10.0,Calm,Calm,-,N/A,,Scattered Clouds,0,2013-08-05 00:56:00
6:56 PM,55.9,52.9,89,29.97,8.0,Calm,Calm,-,N/A,,Partly Cloudy,0,2013-08-05 01:56:00
7:56 PM,54.9,52.9,93,29.98,8.0,Calm,Calm,-,N/A,,Clear,0,2013-08-05 02:56:00
8:11 PM,55.4,53.6,94,29.97,6.0,SW,3.5,-,N/A,,Scattered Clouds,220,2013-08-05 03:11:00
8:19 PM,53.6,53.6,100,29.97,2.5,Calm,Calm,-,N/A,,Mostly Cloudy,0,2013-08-05 03:19:00
8:22 PM,53.6,53.6,100,29.97,1.2,Calm,Calm,-,N/A,,Mostly Cloudy,0,2013-08-05 03:22:00
8:27 PM,53.6,53.6,100,29.97,0.8,Calm,Calm,-,N/A,,Mostly Cloudy,0,2013-08-05 03:27:00
8:34 PM,53.6,53.6,100,29.98,0.2,Calm,Calm,-,N/A,Fog,Fog,0,2013-08-05 03:34:00
8:56 PM,52.9,52.9,100,29.99,0.2,Calm,Calm,-,N/A,Fog,Fog,0,2013-08-05 03:56:00
9:20 PM,53.6,53.6,100,29.99,0.2,Calm,Calm,-,N/A,Fog,Fog,0,2013-08-05 04:20:00
9:30 PM,53.6,53.6,100,29.99,0.2,Calm,Calm,-,N/A,Fog,Fog,0,2013-08-05 04:30:00
9:38 PM,53.6,53.6,100,29.99,0.2,Calm,Calm,-,N/A,Fog,Fog,0,2013-08-05 04:38:00
9:56 PM,52.9,52.9,100,30.00,0.2,ESE,3.5,-,N/A,Fog,Fog,110,2013-08-05 04:56:00
10:18 PM,53.6,53.6,100,30.00,0.2,SSE,3.5,-,N/A,Fog,Fog,160,2013-08-05 05:18:00
10:56 PM,52.0,52.0,100,30.01,0.2,Calm,Calm,-,N/A,Fog,Fog,0,2013-08-05 05:56:00
11:25 PM,51.8,51.8,100,30.00,0.5,Calm,Calm,-,N/A,Fog,Fog,0,2013-08-05 06:25:00
11:34 PM,51.8,51.8,100,30.00,0.2,Calm,Calm,-,N/A,Fog,Fog,0,2013-08-05 06:34:00
11:46 PM,51.8,51.8,100,30.01,0.5,Calm,Calm,-,N/A,Fog,Fog,0,2013-08-05 06:46:00
11:56 PM,52.0,52.0,100,30.01,0.2,Calm,Calm,-,N/A,Fog,Fog,0,2013-08-05 06:56:00